Time,TemperatureF,DewpointF,PressureIn,WindDirection,WindDirectionDegrees,WindSpeedMPH,WindSpeedGustMPH,Humidity,HourlyPrecipIn,Conditions,Clouds,dailyrainin,SoftwareType,DateUTC
2013-03-26 00:01:00,28.7,23.3,29.92,SSW,192,0.0,5.0,80,0.00,,,0.00,WeatherCatV1.10B1784,2013-03-26 04:01:00,
2013-03-26 00:06:00,28.6,23.5,29.92,SW,235,1.0,7.0,81,0.00,,,0.00,WeatherCatV1.10B1784,2013-03-26 04:06:00,
2013-03-26 00:11:00,28.5,23.4,29.92,South,191,3.0,5.0,81,0.00,,,0.00,WeatherCatV1.10B1784,2013-03-26 04:11:00,
2013-03-26 00:16:00,28.5,23.4,29.92,SW,228,5.0,5.0,81,0.00,,,0.00,WeatherCatV1.10B1784,2013-03-26 04:16:00,
2013-03-26 00:21:00,28.5,23.1,29.92,SSW,196,6.0,8.0,80,0.00,,,0.00,WeatherCatV1.10B1784,2013-03-26 04:21:00,
2013-03-26 00:26:00,28.5,23.1,29.93,South,169,2.0,8.0,80,0.00,,,0.00,WeatherCatV1.10B1784,2013-03-26 04:26:00,
2013-03-26 00:31:00,28.5,23.1,29.92,West,259,1.0,11.0,80,0.00,,,0.00,WeatherCatV1.10B1784,2013-03-26 04:31:00,
2013-03-26 00:36:00,28.5,23.4,29.92,South,173,2.0,5.0,81,0.00,,,0.00,WeatherCatV1.10B1784,2013-03-26 04:36:00,
2013-03-26 00:41:00,28.3,23.5,29.93,SW,220,1.0,8.0,82,0.00,,,0.00,WeatherCatV1.10B1784,2013-03-26 04:41:00,
2013-03-26 00:46:00,28.1,23.6,29.93,SW,236,0.0,3.0,83,0.00,,,0.00,WeatherCatV1.10B1784,2013-03-26 04:46:00,
2013-03-26 00:51:00,28.0,23.8,29.93,SSE,155,5.0,8.0,84,0.00,,,0.00,WeatherCatV1.10B1784,2013-03-26 04:51:00,
2013-03-26 00:56:00,27.8,24.2,29.93,South,185,4.0,5.0,86,0.00,,,0.00,WeatherCatV1.10B1784,2013-03-26 04:56:00,
2013-03-26 01:01:00,27.6,24.2,29.93,South,177,3.0,7.0,87,0.00,,,0.00,WeatherCatV1.10B1784,2013-03-26 05:01:00,
2013-03-26 01:06:00,27.5,24.4,29.93,SW,230,3.0,7.0,88,0.00,,,0.00,WeatherCatV1.10B1784,2013-03-26 05:06:00,
2013-03-26 01:11:00,27.4,24.3,29.93,South,173,3.0,5.0,88,0.00,,,0.00,WeatherCatV1.10B1784,2013-03-26 05:11:00,
2013-03-26 01:16:00,27.3,24.5,29.93,South,175,4.0,7.0,89,0.00,,,0.00,WeatherCatV1.10B1784,2013-03-26 05:16:00,
2013-03-26 01:26:00,27.1,23.8,29.93,South,175,1.0,4.0,87,0.00,,,0.00,WeatherCatV1.10B1784,2013-03-26 05:26:00,
2013-03-26 01:31:00,27.2,23.9,29.93,SSW,206,4.0,6.0,87,0.00,,,0.00,WeatherCatV1.10B1784,2013-03-26 05:31:00,
2013-03-26 01:36:00,27.2,23.9,29.92,SSW,202,1.0,4.0,87,0.00,,,0.00,WeatherCatV1.10B1784,2013-03-26 05:36:00,
2013-03-26 01:46:00,27.1,23.8,29.93,SSE,166,2.0,5.0,87,0.00,,,0.00,WeatherCatV1.10B1784,2013-03-26 05:46:00,
2013-03-26 01:51:00,27.0,23.9,29.94,SSE,167,2.0,3.0,88,0.00,,,0.00,WeatherCatV1.10B1784,2013-03-26 05:51:00,
2013-03-26 02:01:00,27.0,23.9,29.94,SSW,208,4.0,6.0,88,0.00,,,0.00,WeatherCatV1.10B1784,2013-03-26 06:01:00,
2013-03-26 02:06:00,27.0,23.9,29.93,South,179,3.0,5.0,88,0.00,,,0.00,WeatherCatV1.10B1784,2013-03-26 06:06:00,
2013-03-26 02:11:00,26.9,23.8,29.93,SSW,194,6.0,9.0,88,0.00,,,0.00,WeatherCatV1.10B1784,2013-03-26 06:11:00,
2013-03-26 02:16:00,26.9,23.6,29.93,SSW,213,4.0,4.0,87,0.00,,,0.00,WeatherCatV1.10B1784,2013-03-26 06:16:00,
2013-03-26 02:21:00,26.9,23.8,29.93,SSW,192,3.0,4.0,88,0.00,,,0.00,WeatherCatV1.10B1784,2013-03-26 06:21:00,
2013-03-26 02:26:00,26.9,23.8,29.93,South,182,1.0,10.0,88,0.00,,,0.00,WeatherCatV1.10B1784,2013-03-26 06:26:00,
2013-03-26 02:31:00,26.9,24.1,29.93,South,185,4.0,7.0,89,0.00,,,0.00,WeatherCatV1.10B1784,2013-03-26 06:31:00,
2013-03-26 02:36:00,26.8,24.0,29.93,SSE,167,0.0,5.0,89,0.00,,,0.00,WeatherCatV1.10B1784,2013-03-26 06:36:00,
2013-03-26 02:41:00,26.8,24.0,29.93,SSW,211,5.0,12.0,89,0.00,,,0.00,WeatherCatV1.10B1784,2013-03-26 06:41:00,
2013-03-26 02:46:00,26.7,23.9,29.93,SSE,167,3.0,6.0,89,0.00,,,0.00,WeatherCatV1.10B1784,2013-03-26 06:46:00,
2013-03-26 02:51:00,26.7,24.2,29.94,South,183,2.0,6.0,90,0.00,,,0.00,WeatherCatV1.10B1784,2013-03-26 06:51:00,
2013-03-26 02:56:00,26.8,24.3,29.94,SW,227,1.0,7.0,90,0.00,,,0.00,WeatherCatV1.10B1784,2013-03-26 06:56:00,
2013-03-26 03:01:00,26.7,24.2,29.94,SSE,165,1.0,3.0,90,0.00,,,0.00,WeatherCatV1.10B1784,2013-03-26 07:01:00,
2013-03-26 03:06:00,26.7,24.2,29.93,SW,221,3.0,4.0,90,0.00,,,0.00,WeatherCatV1.10B1784,2013-03-26 07:06:00,
2013-03-26 03:11:00,26.7,23.9,29.94,South,177,3.0,4.0,89,0.00,,,0.00,WeatherCatV1.10B1784,2013-03-26 07:11:00,
2013-03-26 03:16:00,26.7,23.9,29.93,SSW,211,3.0,7.0,89,0.00,,,0.00,WeatherCatV1.10B1784,2013-03-26 07:16:00,
2013-03-26 03:21:00,26.7,23.9,29.94,SSE,162,2.0,5.0,89,0.00,,,0.00,WeatherCatV1.10B1784,2013-03-26 07:21:00,
2013-03-26 03:26:00,26.6,24.1,29.94,SW,221,4.0,4.0,90,0.00,,,0.00,WeatherCatV1.10B1784,2013-03-26 07:26:00,
2013-03-26 03:31:00,26.6,24.1,29.94,South,171,3.0,3.0,90,0.00,,,0.00,WeatherCatV1.10B1784,2013-03-26 07:31:00,
2013-03-26 03:36:00,26.6,24.1,29.94,South,185,1.0,3.0,90,0.00,,,0.00,WeatherCatV1.10B1784,2013-03-26 07:36:00,
2013-03-26 03:41:00,26.6,23.8,29.94,South,175,2.0,5.0,89,0.00,,,0.00,WeatherCatV1.10B1784,2013-03-26 07:41:00,
2013-03-26 03:46:00,26.6,24.1,29.94,SW,221,1.0,6.0,90,0.00,,,0.00,WeatherCatV1.10B1784,2013-03-26 07:46:00,
2013-03-26 03:51:00,26.6,24.1,29.94,South,186,2.0,4.0,90,0.00,,,0.00,WeatherCatV1.10B1784,2013-03-26 07:51:00,
2013-03-26 03:56:00,26.6,23.8,29.94,South,185,3.0,7.0,89,0.00,,,0.00,WeatherCatV1.10B1784,2013-03-26 07:56:00,
2013-03-26 04:01:00,26.6,23.8,29.94,SSE,150,2.0,6.0,89,0.00,,,0.00,WeatherCatV1.10B1784,2013-03-26 08:01:00,
2013-03-26 04:06:00,26.6,23.8,29.94,SW,220,2.0,4.0,89,0.00,,,0.00,WeatherCatV1.10B1784,2013-03-26 08:06:00,
2013-03-26 04:11:00,26.6,23.8,29.94,SSW,207,2.0,4.0,89,0.00,,,0.00,WeatherCatV1.10B1784,2013-03-26 08:11:00,
2013-03-26 04:16:00,26.7,24.2,29.94,SSW,210,3.0,3.0,90,0.00,,,0.00,WeatherCatV1.10B1784,2013-03-26 08:16:00,
2013-03-26 04:21:00,26.7,23.9,29.94,SW,217,3.0,5.0,89,0.00,,,0.00,WeatherCatV1.10B1784,2013-03-26 08:21:00,
2013-03-26 04:26:00,26.7,23.9,29.94,SSW,196,1.0,5.0,89,0.00,,,0.00,WeatherCatV1.10B1784,2013-03-26 08:26:00,
2013-03-26 04:31:00,26.7,23.9,29.94,SSW,212,4.0,5.0,89,0.00,,,0.00,WeatherCatV1.10B1784,2013-03-26 08:31:00,
2013-03-26 04:36:00,26.7,23.9,29.94,South,180,2.0,4.0,89,0.00,,,0.00,WeatherCatV1.10B1784,2013-03-26 08:36:00,
2013-03-26 04:41:00,26.7,23.9,29.93,South,178,2.0,3.0,89,0.00,,,0.00,WeatherCatV1.10B1784,2013-03-26 08:41:00,
2013-03-26 04:46:00,26.8,24.0,29.93,South,186,2.0,3.0,89,0.00,,,0.00,WeatherCatV1.10B1784,2013-03-26 08:46:00,
2013-03-26 04:51:00,26.8,24.0,29.93,SSW,202,2.0,5.0,89,0.00,,,0.00,WeatherCatV1.10B1784,2013-03-26 08:51:00,
2013-03-26 04:56:00,26.8,24.3,29.93,SSE,148,2.0,5.0,90,0.00,,,0.00,WeatherCatV1.10B1784,2013-03-26 08:56:00,
2013-03-26 05:01:00,26.7,24.2,29.94,South,184,1.0,3.0,90,0.00,,,0.00,WeatherCatV1.10B1784,2013-03-26 09:01:00,
2013-03-26 05:06:00,26.6,24.1,29.93,SW,215,4.0,6.0,90,0.00,,,0.00,WeatherCatV1.10B1784,2013-03-26 09:06:00,
2013-03-26 05:11:00,26.6,24.1,29.93,SSW,197,2.0,5.0,90,0.00,,,0.00,WeatherCatV1.10B1784,2013-03-26 09:11:00,
2013-03-26 05:16:00,26.6,24.3,29.93,South,171,2.0,5.0,91,0.00,,,0.00,WeatherCatV1.10B1784,2013-03-26 09:16:00,
2013-03-26 05:21:00,26.6,24.1,29.93,SSW,205,3.0,6.0,90,0.00,,,0.00,WeatherCatV1.10B1784,2013-03-26 09:21:00,
2013-03-26 05:26:00,26.6,24.3,29.93,South,191,8.0,8.0,91,0.00,,,0.00,WeatherCatV1.10B1784,2013-03-26 09:26:00,
2013-03-26 05:31:00,26.6,24.3,29.93,SSW,198,3.0,4.0,91,0.00,,,0.00,WeatherCatV1.10B1784,2013-03-26 09:31:00,
2013-03-26 05:36:00,26.6,24.3,29.93,SSW,205,1.0,5.0,91,0.00,,,0.00,WeatherCatV1.10B1784,2013-03-26 09:36:00,
2013-03-26 05:41:00,26.6,24.3,29.94,SW,235,1.0,5.0,91,0.00,,,0.00,WeatherCatV1.10B1784,2013-03-26 09:41:00,
2013-03-26 05:46:00,26.6,24.3,29.93,South,171,2.0,4.0,91,0.00,,,0.00,WeatherCatV1.10B1784,2013-03-26 09:46:00,
2013-03-26 05:51:00,26.6,24.6,29.94,SSW,207,0.0,4.0,92,0.00,,,0.00,WeatherCatV1.10B1784,2013-03-26 09:51:00,
2013-03-26 05:56:00,26.6,24.6,29.94,SW,226,4.0,4.0,92,0.00,,,0.00,WeatherCatV1.10B1784,2013-03-26 09:56:00,
2013-03-26 06:01:00,26.6,24.3,29.94,South,175,1.0,3.0,91,0.00,,,0.00,WeatherCatV1.10B1784,2013-03-26 10:01:00,
2013-03-26 06:06:00,26.6,24.6,29.94,SW,220,6.0,6.0,92,0.00,,,0.00,WeatherCatV1.10B1784,2013-03-26 10:06:00,
2013-03-26 06:11:00,26.6,24.6,29.94,SSW,192,3.0,5.0,92,0.00,,,0.00,WeatherCatV1.10B1784,2013-03-26 10:11:00,
2013-03-26 06:16:00,26.6,24.6,29.94,South,182,3.0,6.0,92,0.00,,,0.00,WeatherCatV1.10B1784,2013-03-26 10:16:00,
2013-03-26 06:21:00,26.6,24.6,29.94,SW,227,4.0,4.0,92,0.00,,,0.00,WeatherCatV1.10B1784,2013-03-26 10:21:00,
2013-03-26 06:26:00,26.6,24.6,29.94,SSW,193,2.0,3.0,92,0.00,,,0.00,WeatherCatV1.10B1784,2013-03-26 10:26:00,
2013-03-26 06:31:00,26.7,24.7,29.94,WSW,249,1.0,7.0,92,0.00,,,0.00,WeatherCatV1.10B1784,2013-03-26 10:31:00,
2013-03-26 06:36:00,26.7,24.7,29.94,South,188,2.0,5.0,92,0.00,,,0.00,WeatherCatV1.10B1784,2013-03-26 10:36:00,
2013-03-26 06:41:00,26.7,24.7,29.94,SW,219,2.0,7.0,92,0.00,,,0.00,WeatherCatV1.10B1784,2013-03-26 10:41:00,
2013-03-26 06:51:00,26.7,24.7,29.94,SSW,202,2.0,6.0,92,0.00,,,0.00,WeatherCatV1.10B1784,2013-03-26 10:51:00,
2013-03-26 06:56:00,26.7,24.7,29.94,WSW,256,2.0,7.0,92,0.00,,,0.00,WeatherCatV1.10B1784,2013-03-26 10:56:00,
2013-03-26 07:01:00,26.7,24.7,29.94,SSW,197,1.0,9.0,92,0.00,,,0.00,WeatherCatV1.10B1784,2013-03-26 11:01:00,
2013-03-26 07:06:00,26.7,24.7,29.95,South,180,1.0,4.0,92,0.00,,,0.00,WeatherCatV1.10B1784,2013-03-26 11:06:00,
2013-03-26 07:11:00,26.6,24.6,29.95,South,188,1.0,3.0,92,0.00,,,0.00,WeatherCatV1.10B1784,2013-03-26 11:11:00,
2013-03-26 07:16:00,26.7,25.0,29.95,SSW,205,4.0,7.0,93,0.00,,,0.00,WeatherCatV1.10B1784,2013-03-26 11:16:00,
2013-03-26 07:21:00,26.7,24.7,29.95,SSW,195,4.0,4.0,92,0.00,,,0.00,WeatherCatV1.10B1784,2013-03-26 11:21:00,
2013-03-26 07:26:00,26.7,24.7,29.95,SW,219,3.0,6.0,92,0.00,,,0.00,WeatherCatV1.10B1784,2013-03-26 11:26:00,
2013-03-26 07:31:00,26.7,24.7,29.95,South,169,2.0,5.0,92,0.00,,,0.00,WeatherCatV1.10B1784,2013-03-26 11:31:00,
2013-03-26 07:36:00,26.7,25.0,29.96,South,186,1.0,3.0,93,0.00,,,0.00,WeatherCatV1.10B1784,2013-03-26 11:36:00,
2013-03-26 07:41:00,26.7,25.0,29.96,SSW,209,1.0,4.0,93,0.00,,,0.00,WeatherCatV1.10B1784,2013-03-26 11:41:00,
2013-03-26 07:46:00,26.7,24.7,29.96,SSW,207,4.0,8.0,92,0.00,,,0.00,WeatherCatV1.10B1784,2013-03-26 11:46:00,
2013-03-26 07:51:00,26.8,24.8,29.96,SSW,196,1.0,4.0,92,0.00,,,0.00,WeatherCatV1.10B1784,2013-03-26 11:51:00,
2013-03-26 07:56:00,26.8,24.8,29.96,South,175,1.0,7.0,92,0.00,,,0.00,WeatherCatV1.10B1784,2013-03-26 11:56:00,
2013-03-26 08:01:00,26.9,25.2,29.97,SSW,213,3.0,6.0,93,0.00,,,0.00,WeatherCatV1.10B1784,2013-03-26 12:01:00,
2013-03-26 08:06:00,26.9,24.9,29.97,SSW,208,1.0,6.0,92,0.00,,,0.00,WeatherCatV1.10B1784,2013-03-26 12:06:00,
2013-03-26 08:11:00,26.9,24.9,29.97,SW,221,5.0,5.0,92,0.00,,,0.00,WeatherCatV1.10B1784,2013-03-26 12:11:00,
2013-03-26 08:16:00,27.0,25.0,29.97,South,190,2.0,4.0,92,0.00,,,0.00,WeatherCatV1.10B1784,2013-03-26 12:16:00,
2013-03-26 08:21:00,27.0,25.0,29.97,SW,222,6.0,9.0,92,0.00,,,0.00,WeatherCatV1.10B1784,2013-03-26 12:21:00,
2013-03-26 08:26:00,27.0,25.0,29.97,SW,221,3.0,4.0,92,0.00,,,0.00,WeatherCatV1.10B1784,2013-03-26 12:26:00,
2013-03-26 08:31:00,27.1,25.1,29.97,SSW,198,2.0,4.0,92,0.00,,,0.00,WeatherCatV1.10B1784,2013-03-26 12:31:00,
2013-03-26 08:41:00,27.3,25.3,29.97,South,178,4.0,5.0,92,0.00,,,0.00,WeatherCatV1.10B1784,2013-03-26 12:41:00,
2013-03-26 08:46:00,27.4,25.4,29.98,WSW,237,4.0,8.0,92,0.00,,,0.00,WeatherCatV1.10B1784,2013-03-26 12:46:00,
2013-03-26 08:51:00,27.5,25.5,29.98,South,172,1.0,8.0,92,0.00,,,0.00,WeatherCatV1.10B1784,2013-03-26 12:51:00,
2013-03-26 08:56:00,27.5,25.5,29.98,SSW,213,4.0,5.0,92,0.00,,,0.00,WeatherCatV1.10B1784,2013-03-26 12:56:00,
2013-03-26 09:01:00,27.6,25.6,29.99,WSW,248,3.0,6.0,92,0.00,,,0.00,WeatherCatV1.10B1784,2013-03-26 13:01:00,
2013-03-26 09:06:00,27.7,25.7,29.99,SSW,210,3.0,5.0,92,0.00,,,0.00,WeatherCatV1.10B1784,2013-03-26 13:06:00,
2013-03-26 09:11:00,27.8,25.5,29.99,South,184,2.0,2.0,91,0.00,,,0.00,WeatherCatV1.10B1784,2013-03-26 13:11:00,
2013-03-26 09:16:00,27.8,25.5,29.99,South,191,3.0,4.0,91,0.00,,,0.00,WeatherCatV1.10B1784,2013-03-26 13:16:00,
2013-03-26 09:21:00,27.9,25.9,30.00,South,178,2.0,5.0,92,0.00,,,0.00,WeatherCatV1.10B1784,2013-03-26 13:21:00,
2013-03-26 09:26:00,27.9,25.9,30.00,South,185,1.0,5.0,92,0.00,,,0.00,WeatherCatV1.10B1784,2013-03-26 13:26:00,
2013-03-26 09:31:00,28.0,26.0,30.00,SW,221,3.0,5.0,92,0.00,,,0.00,WeatherCatV1.10B1784,2013-03-26 13:31:00,
2013-03-26 09:36:00,28.2,26.2,30.00,SSE,165,3.0,4.0,92,0.00,,,0.00,WeatherCatV1.10B1784,2013-03-26 13:36:00,
2013-03-26 09:41:00,28.4,26.4,30.00,South,176,1.0,6.0,92,0.00,,,0.00,WeatherCatV1.10B1784,2013-03-26 13:41:00,
2013-03-26 09:46:00,28.4,26.1,30.00,SW,236,3.0,6.0,91,0.00,,,0.00,WeatherCatV1.10B1784,2013-03-26 13:46:00,
2013-03-26 09:51:00,28.5,25.9,30.00,SSE,157,3.0,8.0,90,0.00,,,0.00,WeatherCatV1.10B1784,2013-03-26 13:51:00,
2013-03-26 09:56:00,28.6,26.0,30.01,SSW,213,6.0,8.0,90,0.00,,,0.00,WeatherCatV1.10B1784,2013-03-26 13:56:00,
2013-03-26 10:01:00,28.7,26.1,30.01,SE,130,4.0,8.0,90,0.00,,,0.00,WeatherCatV1.10B1784,2013-03-26 14:01:00,
2013-03-26 10:11:00,28.8,26.2,30.01,SSW,193,6.0,6.0,90,0.00,,,0.00,WeatherCatV1.10B1784,2013-03-26 14:11:00,
2013-03-26 10:16:00,28.7,25.9,30.01,WSW,247,0.0,7.0,89,0.00,,,0.00,WeatherCatV1.10B1784,2013-03-26 14:16:00,
2013-03-26 10:21:00,28.8,26.0,30.02,WSW,244,2.0,5.0,89,0.00,,,0.00,WeatherCatV1.10B1784,2013-03-26 14:21:00,
2013-03-26 10:26:00,28.9,26.1,30.02,SW,218,8.0,8.0,89,0.00,,,0.00,WeatherCatV1.10B1784,2013-03-26 14:26:00,
2013-03-26 10:31:00,29.2,26.4,30.02,SSW,206,5.0,9.0,89,0.00,,,0.00,WeatherCatV1.10B1784,2013-03-26 14:31:00,
2013-03-26 10:36:00,29.4,26.3,30.02,South,182,6.0,6.0,88,0.00,,,0.00,WeatherCatV1.10B1784,2013-03-26 14:36:00,
2013-03-26 10:41:00,29.4,26.3,30.02,SSW,196,2.0,6.0,88,0.00,,,0.00,WeatherCatV1.10B1784,2013-03-26 14:41:00,
2013-03-26 10:46:00,29.6,26.5,30.02,SW,224,5.0,7.0,88,0.00,,,0.00,WeatherCatV1.10B1784,2013-03-26 14:46:00,
2013-03-26 10:51:00,29.7,26.6,30.03,SSW,201,2.0,5.0,88,0.00,,,0.00,WeatherCatV1.10B1784,2013-03-26 14:51:00,
2013-03-26 10:56:00,29.8,26.4,30.03,South,171,2.0,6.0,87,0.00,,,0.00,WeatherCatV1.10B1784,2013-03-26 14:56:00,
2013-03-26 11:01:00,29.9,26.2,30.03,NW,313,5.0,7.0,86,0.00,,,0.00,WeatherCatV1.10B1784,2013-03-26 15:01:00,
2013-03-26 11:06:00,30.1,26.4,30.03,SSW,207,3.0,7.0,86,0.00,,,0.00,WeatherCatV1.10B1784,2013-03-26 15:06:00,
2013-03-26 11:11:00,30.1,26.1,30.04,SW,226,4.0,9.0,85,0.00,,,0.00,WeatherCatV1.10B1784,2013-03-26 15:11:00,
2013-03-26 11:16:00,30.3,26.3,30.04,SSE,160,5.0,7.0,85,0.00,,,0.00,WeatherCatV1.10B1784,2013-03-26 15:16:00,
2013-03-26 11:21:00,30.5,26.5,30.04,SSE,160,4.0,6.0,85,0.00,,,0.00,WeatherCatV1.10B1784,2013-03-26 15:21:00,
2013-03-26 11:26:00,30.5,26.3,30.04,SSE,163,3.0,9.0,84,0.00,,,0.00,WeatherCatV1.10B1784,2013-03-26 15:26:00,
2013-03-26 11:31:00,30.6,26.4,30.05,SW,219,1.0,6.0,84,0.00,,,0.00,WeatherCatV1.10B1784,2013-03-26 15:31:00,
2013-03-26 11:36:00,30.9,26.6,30.05,SW,232,6.0,8.0,84,0.00,,,0.00,WeatherCatV1.10B1784,2013-03-26 15:36:00,
2013-03-26 11:41:00,30.8,26.3,30.05,SSE,163,4.0,10.0,83,0.00,,,0.00,WeatherCatV1.10B1784,2013-03-26 15:41:00,
2013-03-26 11:46:00,30.7,26.2,30.05,ESE,114,5.0,7.0,83,0.00,,,0.00,WeatherCatV1.10B1784,2013-03-26 15:46:00,
2013-03-26 11:51:00,30.7,26.2,30.05,SSW,192,2.0,4.0,83,0.00,,,0.00,WeatherCatV1.10B1784,2013-03-26 15:51:00,
2013-03-26 11:56:00,31.0,26.5,30.05,SW,215,4.0,6.0,83,0.00,,,0.01,WeatherCatV1.10B1784,2013-03-26 15:56:00,
2013-03-26 12:01:00,31.3,26.7,30.05,SW,229,5.0,9.0,83,0.00,,,0.01,WeatherCatV1.10B1784,2013-03-26 16:01:00,
2013-03-26 12:06:00,31.6,26.7,30.05,SSW,193,7.0,9.0,82,0.00,,,0.01,WeatherCatV1.10B1784,2013-03-26 16:06:00,
2013-03-26 12:11:00,31.7,27.1,30.05,South,173,3.0,8.0,83,0.00,,,0.01,WeatherCatV1.10B1784,2013-03-26 16:11:00,
2013-03-26 12:21:00,32.0,26.8,30.05,SW,223,6.0,9.0,81,0.00,,,0.01,WeatherCatV1.10B1784,2013-03-26 16:21:00,
2013-03-26 12:26:00,32.1,27.2,30.05,SSW,197,5.0,7.0,82,0.00,,,0.01,WeatherCatV1.10B1784,2013-03-26 16:26:00,
2013-03-26 12:31:00,32.3,27.1,30.06,SW,231,3.0,8.0,81,0.00,,,0.01,WeatherCatV1.10B1784,2013-03-26 16:31:00,
2013-03-26 12:36:00,32.5,27.3,30.06,South,191,4.0,8.0,81,0.00,,,0.01,WeatherCatV1.10B1784,2013-03-26 16:36:00,
2013-03-26 12:41:00,32.5,27.3,30.06,SW,223,8.0,8.0,81,0.00,,,0.01,WeatherCatV1.10B1784,2013-03-26 16:41:00,
2013-03-26 12:51:00,32.6,27.7,30.06,WSW,250,8.0,8.0,82,0.00,,,0.01,WeatherCatV1.10B1784,2013-03-26 16:51:00,
2013-03-26 13:01:00,34.1,28.3,30.06,ESE,121,3.0,12.0,79,0.00,,,0.01,WeatherCatV1.10B1784,2013-03-26 17:01:00,
2013-03-26 13:06:00,34.4,28.3,30.06,SW,219,9.0,9.0,78,0.00,,,0.01,WeatherCatV1.10B1784,2013-03-26 17:06:00,
2013-03-26 13:11:00,34.2,28.7,30.06,SW,225,6.0,8.0,80,0.00,,,0.02,WeatherCatV1.10B1784,2013-03-26 17:11:00,
2013-03-26 13:21:00,34.8,28.3,30.06,SSW,202,3.0,8.0,77,0.00,,,0.02,WeatherCatV1.10B1784,2013-03-26 17:21:00,
2013-03-26 13:26:00,35.0,28.5,30.06,SW,224,5.0,8.0,77,0.00,,,0.02,WeatherCatV1.10B1784,2013-03-26 17:26:00,
2013-03-26 13:31:00,34.4,27.3,30.06,ESE,108,5.0,8.0,75,0.00,,,0.02,WeatherCatV1.10B1784,2013-03-26 17:31:00,
2013-03-26 13:36:00,34.2,28.1,30.06,SW,221,7.0,9.0,78,0.00,,,0.02,WeatherCatV1.10B1784,2013-03-26 17:36:00,
2013-03-26 13:41:00,33.8,28.0,30.06,SW,227,6.0,10.0,79,0.00,,,0.02,WeatherCatV1.10B1784,2013-03-26 17:41:00,
2013-03-26 13:46:00,34.1,28.0,30.06,WSW,248,7.0,10.0,78,0.00,,,0.02,WeatherCatV1.10B1784,2013-03-26 17:46:00,
2013-03-26 13:51:00,34.5,28.0,30.06,SW,232,5.0,9.0,77,0.00,,,0.02,WeatherCatV1.10B1784,2013-03-26 17:51:00,
2013-03-26 13:56:00,34.5,28.0,30.06,South,182,2.0,7.0,77,0.00,,,0.02,WeatherCatV1.10B1784,2013-03-26 17:56:00,
2013-03-26 14:01:00,34.7,28.2,30.06,West,264,8.0,8.0,77,0.00,,,0.02,WeatherCatV1.10B1784,2013-03-26 18:01:00,
2013-03-26 14:06:00,34.6,28.1,30.06,SW,223,5.0,7.0,77,0.00,,,0.02,WeatherCatV1.10B1784,2013-03-26 18:06:00,
2013-03-26 14:11:00,34.4,28.6,30.06,WSW,252,3.0,6.0,79,0.00,,,0.02,WeatherCatV1.10B1784,2013-03-26 18:11:00,
2013-03-26 14:16:00,34.2,28.4,30.06,SSE,162,2.0,7.0,79,0.00,,,0.02,WeatherCatV1.10B1784,2013-03-26 18:16:00,
2013-03-26 14:21:00,34.6,28.8,30.06,SSE,167,5.0,11.0,79,0.00,,,0.02,WeatherCatV1.10B1784,2013-03-26 18:21:00,
2013-03-26 14:26:00,34.3,28.5,30.06,SSW,209,7.0,10.0,79,0.00,,,0.02,WeatherCatV1.10B1784,2013-03-26 18:26:00,
2013-03-26 14:31:00,34.3,28.8,30.06,WSW,246,7.0,8.0,80,0.00,,,0.02,WeatherCatV1.10B1784,2013-03-26 18:31:00,
2013-03-26 14:36:00,34.5,28.4,30.06,SW,217,8.0,11.0,78,0.00,,,0.02,WeatherCatV1.10B1784,2013-03-26 18:36:00,
2013-03-26 14:41:00,34.2,27.4,30.06,SSW,207,4.0,8.0,76,0.00,,,0.02,WeatherCatV1.10B1784,2013-03-26 18:41:00,
2013-03-26 14:46:00,34.1,27.7,30.06,South,173,2.0,5.0,77,0.00,,,0.02,WeatherCatV1.10B1784,2013-03-26 18:46:00,
2013-03-26 14:51:00,34.4,27.3,30.06,WSW,237,5.0,7.0,75,0.00,,,0.02,WeatherCatV1.10B1784,2013-03-26 18:51:00,
2013-03-26 14:56:00,35.0,27.9,30.06,WSW,252,5.0,6.0,75,0.00,,,0.02,WeatherCatV1.10B1784,2013-03-26 18:56:00,
2013-03-26 15:01:00,35.1,27.7,30.06,SW,219,7.0,9.0,74,0.00,,,0.02,WeatherCatV1.10B1784,2013-03-26 19:01:00,
2013-03-26 15:06:00,35.0,26.9,30.06,East,86,3.0,9.0,72,0.00,,,0.02,WeatherCatV1.10B1784,2013-03-26 19:06:00,
2013-03-26 15:11:00,34.8,27.7,30.06,South,180,1.0,5.0,75,0.00,,,0.02,WeatherCatV1.10B1784,2013-03-26 19:11:00,
2013-03-26 15:16:00,34.3,27.9,30.07,SW,219,5.0,10.0,77,0.00,,,0.02,WeatherCatV1.10B1784,2013-03-26 19:16:00,
2013-03-26 15:21:00,34.1,27.7,30.07,West,272,2.0,9.0,77,0.00,,,0.02,WeatherCatV1.10B1784,2013-03-26 19:21:00,
2013-03-26 15:26:00,33.9,27.5,30.07,WNW,291,1.0,7.0,77,0.00,,,0.02,WeatherCatV1.10B1784,2013-03-26 19:26:00,
2013-03-26 15:31:00,33.8,27.4,30.07,South,178,3.0,11.0,77,0.00,,,0.02,WeatherCatV1.10B1784,2013-03-26 19:31:00,
2013-03-26 15:41:00,33.3,27.2,30.08,SW,219,4.0,5.0,78,0.00,,,0.02,WeatherCatV1.10B1784,2013-03-26 19:41:00,
2013-03-26 15:46:00,33.1,27.3,30.08,SSW,205,7.0,11.0,79,0.00,,,0.02,WeatherCatV1.10B1784,2013-03-26 19:46:00,
2013-03-26 15:51:00,33.0,27.5,30.08,South,178,5.0,5.0,80,0.00,,,0.02,WeatherCatV1.10B1784,2013-03-26 19:51:00,
2013-03-26 15:56:00,33.1,27.3,30.08,WSW,250,7.0,8.0,79,0.00,,,0.02,WeatherCatV1.10B1784,2013-03-26 19:56:00,
2013-03-26 16:01:00,33.2,26.8,30.08,NW,307,0.0,7.0,77,0.00,,,0.02,WeatherCatV1.10B1784,2013-03-26 20:01:00,
2013-03-26 16:11:00,33.0,26.9,30.08,SSE,163,2.0,6.0,78,0.00,,,0.02,WeatherCatV1.10B1784,2013-03-26 20:11:00,
2013-03-26 16:16:00,33.0,27.2,30.08,South,180,2.0,6.0,79,0.00,,,0.02,WeatherCatV1.10B1784,2013-03-26 20:16:00,
2013-03-26 16:21:00,32.9,26.2,30.08,ESE,121,2.0,8.0,76,0.00,,,0.02,WeatherCatV1.10B1784,2013-03-26 20:21:00,
2013-03-26 16:26:00,32.8,26.4,30.08,SW,234,2.0,6.0,77,0.00,,,0.02,WeatherCatV1.10B1784,2013-03-26 20:26:00,
2013-03-26 16:31:00,32.6,26.8,30.08,West,270,3.0,8.0,79,0.00,,,0.02,WeatherCatV1.10B1784,2013-03-26 20:31:00,
2013-03-26 16:36:00,32.3,26.8,30.08,SSW,202,1.0,3.0,80,0.00,,,0.02,WeatherCatV1.10B1784,2013-03-26 20:36:00,
2013-03-26 16:41:00,32.1,27.2,30.08,SW,228,9.0,9.0,82,0.00,,,0.02,WeatherCatV1.10B1784,2013-03-26 20:41:00,
2013-03-26 16:46:00,31.6,27.3,30.09,South,180,0.0,6.0,84,0.00,,,0.02,WeatherCatV1.10B1784,2013-03-26 20:46:00,
2013-03-26 16:51:00,31.3,27.0,30.09,South,186,1.0,4.0,84,0.00,,,0.02,WeatherCatV1.10B1784,2013-03-26 20:51:00,
2013-03-26 16:56:00,31.2,26.9,30.09,WNW,292,2.0,10.0,84,0.00,,,0.02,WeatherCatV1.10B1784,2013-03-26 20:56:00,
2013-03-26 17:01:00,31.2,26.6,30.09,SW,215,4.0,10.0,83,0.00,,,0.02,WeatherCatV1.10B1784,2013-03-26 21:01:00,
2013-03-26 17:06:00,31.2,26.9,30.09,SSW,192,3.0,4.0,84,0.00,,,0.02,WeatherCatV1.10B1784,2013-03-26 21:06:00,
2013-03-26 17:16:00,31.5,26.9,30.09,South,174,2.0,4.0,83,0.00,,,0.02,WeatherCatV1.10B1784,2013-03-26 21:16:00,
2013-03-26 17:21:00,31.6,27.0,30.09,SW,221,1.0,6.0,83,0.00,,,0.02,WeatherCatV1.10B1784,2013-03-26 21:21:00,
2013-03-26 17:26:00,31.5,26.9,30.10,SSE,161,2.0,4.0,83,0.00,,,0.02,WeatherCatV1.10B1784,2013-03-26 21:26:00,
2013-03-26 17:31:00,31.6,26.7,30.10,SW,219,6.0,6.0,82,0.00,,,0.02,WeatherCatV1.10B1784,2013-03-26 21:31:00,
2013-03-26 17:36:00,31.7,26.8,30.10,SSW,197,4.0,8.0,82,0.00,,,0.02,WeatherCatV1.10B1784,2013-03-26 21:36:00,
2013-03-26 17:41:00,32.3,27.4,30.10,SSW,200,4.0,6.0,82,0.00,,,0.02,WeatherCatV1.10B1784,2013-03-26 21:41:00,
2013-03-26 17:46:00,32.6,27.1,30.10,SW,232,1.0,3.0,80,0.00,,,0.02,WeatherCatV1.10B1784,2013-03-26 21:46:00,
2013-03-26 17:51:00,32.7,27.2,30.10,SSW,199,5.0,5.0,80,0.00,,,0.02,WeatherCatV1.10B1784,2013-03-26 21:51:00,
2013-03-26 17:56:00,32.6,27.1,30.10,South,173,2.0,4.0,80,0.00,,,0.02,WeatherCatV1.10B1784,2013-03-26 21:56:00,
2013-03-26 18:01:00,32.5,27.0,30.10,West,272,4.0,7.0,80,0.00,,,0.02,WeatherCatV1.10B1784,2013-03-26 22:01:00,
2013-03-26 18:06:00,32.5,26.7,30.10,SSW,193,3.0,10.0,79,0.00,,,0.02,WeatherCatV1.10B1784,2013-03-26 22:06:00,
2013-03-26 18:11:00,32.4,26.6,30.10,SSW,213,4.0,4.0,79,0.00,,,0.02,WeatherCatV1.10B1784,2013-03-26 22:11:00,
2013-03-26 18:16:00,32.3,26.8,30.11,West,265,4.0,4.0,80,0.00,,,0.02,WeatherCatV1.10B1784,2013-03-26 22:16:00,
2013-03-26 18:21:00,32.2,26.4,30.11,SSW,208,5.0,5.0,79,0.00,,,0.02,WeatherCatV1.10B1784,2013-03-26 22:21:00,
2013-03-26 18:26:00,31.9,26.4,30.11,West,267,4.0,6.0,80,0.00,,,0.02,WeatherCatV1.10B1784,2013-03-26 22:26:00,
2013-03-26 18:31:00,31.8,26.3,30.11,SW,226,6.0,7.0,80,0.00,,,0.02,WeatherCatV1.10B1784,2013-03-26 22:31:00,
2013-03-26 18:36:00,31.5,26.4,30.11,SW,227,4.0,6.0,81,0.00,,,0.02,WeatherCatV1.10B1784,2013-03-26 22:36:00,
2013-03-26 18:41:00,31.4,26.8,30.12,SSW,212,0.0,2.0,83,0.00,,,0.02,WeatherCatV1.10B1784,2013-03-26 22:41:00,
2013-03-26 18:46:00,31.4,27.1,30.12,SSW,213,3.0,4.0,84,0.00,,,0.02,WeatherCatV1.10B1784,2013-03-26 22:46:00,
2013-03-26 18:51:00,31.3,26.7,30.12,SSW,213,5.0,5.0,83,0.00,,,0.02,WeatherCatV1.10B1784,2013-03-26 22:51:00,
2013-03-26 18:56:00,31.2,26.6,30.12,SW,219,2.0,5.0,83,0.00,,,0.02,WeatherCatV1.10B1784,2013-03-26 22:56:00,
2013-03-26 19:01:00,31.2,26.6,30.12,SSW,209,3.0,4.0,83,0.00,,,0.02,WeatherCatV1.10B1784,2013-03-26 23:01:00,
2013-03-26 19:06:00,31.1,26.6,30.12,SSE,168,2.0,5.0,83,0.00,,,0.02,WeatherCatV1.10B1784,2013-03-26 23:06:00,
2013-03-26 19:11:00,31.1,26.8,30.12,SSW,196,5.0,5.0,84,0.00,,,0.02,WeatherCatV1.10B1784,2013-03-26 23:11:00,
2013-03-26 19:16:00,31.0,26.7,30.12,SSW,206,2.0,3.0,84,0.00,,,0.02,WeatherCatV1.10B1784,2013-03-26 23:16:00,
2013-03-26 19:21:00,31.0,26.7,30.13,SW,219,1.0,5.0,84,0.00,,,0.02,WeatherCatV1.10B1784,2013-03-26 23:21:00,
2013-03-26 19:26:00,30.9,26.6,30.13,SSE,165,3.0,4.0,84,0.00,,,0.02,WeatherCatV1.10B1784,2013-03-26 23:26:00,
2013-03-26 19:31:00,30.8,26.8,30.13,SSW,213,1.0,6.0,85,0.00,,,0.02,WeatherCatV1.10B1784,2013-03-26 23:31:00,
2013-03-26 19:36:00,30.8,26.8,30.13,South,173,1.0,3.0,85,0.00,,,0.02,WeatherCatV1.10B1784,2013-03-26 23:36:00,
2013-03-26 19:41:00,30.7,26.7,30.13,SW,221,4.0,4.0,85,0.00,,,0.02,WeatherCatV1.10B1784,2013-03-26 23:41:00,
2013-03-26 19:46:00,30.7,26.7,30.13,SSW,197,4.0,6.0,85,0.00,,,0.02,WeatherCatV1.10B1784,2013-03-26 23:46:00,
2013-03-26 19:51:00,30.6,26.6,30.13,SSW,198,5.0,6.0,85,0.00,,,0.02,WeatherCatV1.10B1784,2013-03-26 23:51:00,
2013-03-26 19:56:00,30.6,26.6,30.13,SW,231,3.0,6.0,85,0.00,,,0.02,WeatherCatV1.10B1784,2013-03-26 23:56:00,
2013-03-26 20:01:00,30.6,26.9,30.14,South,184,3.0,5.0,86,0.00,,,0.02,WeatherCatV1.10B1784,2013-03-27 00:01:00,
2013-03-26 20:06:00,30.6,26.9,30.14,South,172,0.0,7.0,86,0.00,,,0.02,WeatherCatV1.10B1784,2013-03-27 00:06:00,
2013-03-26 20:11:00,30.6,26.9,30.14,South,191,3.0,5.0,86,0.00,,,0.02,WeatherCatV1.10B1784,2013-03-27 00:11:00,
2013-03-26 20:16:00,30.5,26.8,30.14,SSW,196,2.0,5.0,86,0.00,,,0.02,WeatherCatV1.10B1784,2013-03-27 00:16:00,
2013-03-26 20:21:00,30.5,26.8,30.15,WSW,244,1.0,5.0,86,0.00,,,0.02,WeatherCatV1.10B1784,2013-03-27 00:21:00,
2013-03-26 20:26:00,30.5,27.1,30.15,SW,220,4.0,6.0,87,0.00,,,0.02,WeatherCatV1.10B1784,2013-03-27 00:26:00,
2013-03-26 20:31:00,30.5,27.1,30.15,South,186,2.0,3.0,87,0.00,,,0.02,WeatherCatV1.10B1784,2013-03-27 00:31:00,
2013-03-26 20:41:00,30.3,27.2,30.15,SSW,202,0.0,4.0,88,0.00,,,0.02,WeatherCatV1.10B1784,2013-03-27 00:41:00,
2013-03-26 20:46:00,30.2,27.4,30.15,SW,230,5.0,6.0,89,0.00,,,0.02,WeatherCatV1.10B1784,2013-03-27 00:46:00,
2013-03-26 20:51:00,30.1,27.3,30.15,SW,224,4.0,6.0,89,0.00,,,0.02,WeatherCatV1.10B1784,2013-03-27 00:51:00,
2013-03-26 20:56:00,30.0,27.4,30.16,SW,223,4.0,7.0,90,0.00,,,0.02,WeatherCatV1.10B1784,2013-03-27 00:56:00,
2013-03-26 21:01:00,29.9,27.3,30.16,SW,230,3.0,5.0,90,0.00,,,0.02,WeatherCatV1.10B1784,2013-03-27 01:01:00,
2013-03-26 21:06:00,29.8,27.2,30.16,SW,217,2.0,4.0,90,0.00,,,0.02,WeatherCatV1.10B1784,2013-03-27 01:06:00,
2013-03-26 21:11:00,29.8,27.5,30.16,South,169,3.0,4.0,91,0.00,,,0.02,WeatherCatV1.10B1784,2013-03-27 01:11:00,
2013-03-26 21:16:00,29.8,27.5,30.16,SSW,212,4.0,8.0,91,0.00,,,0.02,WeatherCatV1.10B1784,2013-03-27 01:16:00,
2013-03-26 21:21:00,29.7,27.4,30.16,South,172,2.0,7.0,91,0.00,,,0.02,WeatherCatV1.10B1784,2013-03-27 01:21:00,
2013-03-26 21:26:00,29.7,27.1,30.16,South,180,2.0,4.0,90,0.00,,,0.02,WeatherCatV1.10B1784,2013-03-27 01:26:00,
2013-03-26 21:31:00,29.7,27.1,30.16,SSW,192,4.0,6.0,90,0.00,,,0.02,WeatherCatV1.10B1784,2013-03-27 01:31:00,
2013-03-26 21:36:00,29.7,27.1,30.16,South,170,3.0,5.0,90,0.00,,,0.02,WeatherCatV1.10B1784,2013-03-27 01:36:00,
2013-03-26 21:41:00,29.7,27.1,30.16,SSE,167,5.0,7.0,90,0.00,,,0.02,WeatherCatV1.10B1784,2013-03-27 01:41:00,
2013-03-26 21:46:00,29.7,26.9,30.17,WSW,240,2.0,6.0,89,0.00,,,0.02,WeatherCatV1.10B1784,2013-03-27 01:46:00,
2013-03-26 21:51:00,29.6,26.8,30.17,South,178,4.0,6.0,89,0.00,,,0.02,WeatherCatV1.10B1784,2013-03-27 01:51:00,
2013-03-26 21:56:00,29.5,26.7,30.17,South,185,3.0,4.0,89,0.00,,,0.02,WeatherCatV1.10B1784,2013-03-27 01:56:00,
2013-03-26 22:01:00,29.4,26.3,30.17,SW,223,8.0,8.0,88,0.00,,,0.02,WeatherCatV1.10B1784,2013-03-27 02:01:00,
2013-03-26 22:06:00,29.4,26.3,30.17,SSE,163,4.0,6.0,88,0.00,,,0.02,WeatherCatV1.10B1784,2013-03-27 02:06:00,
2013-03-26 22:11:00,29.4,26.3,30.17,SW,229,4.0,4.0,88,0.00,,,0.02,WeatherCatV1.10B1784,2013-03-27 02:11:00,
2013-03-26 22:16:00,29.4,26.0,30.17,South,178,3.0,7.0,87,0.00,,,0.02,WeatherCatV1.10B1784,2013-03-27 02:16:00,
2013-03-26 22:21:00,29.5,26.1,30.17,WSW,242,4.0,8.0,87,0.00,,,0.02,WeatherCatV1.10B1784,2013-03-27 02:21:00,
2013-03-26 22:26:00,29.6,26.2,30.17,SSE,168,3.0,6.0,87,0.00,,,0.02,WeatherCatV1.10B1784,2013-03-27 02:26:00,
2013-03-26 22:31:00,29.6,26.2,30.18,SE,135,0.0,10.0,87,0.00,,,0.02,WeatherCatV1.10B1784,2013-03-27 02:31:00,
2013-03-26 22:36:00,29.6,26.2,30.18,SSW,200,2.0,2.0,87,0.00,,,0.02,WeatherCatV1.10B1784,2013-03-27 02:36:00,
2013-03-26 22:41:00,29.6,26.2,30.18,South,178,1.0,7.0,87,0.00,,,0.02,WeatherCatV1.10B1784,2013-03-27 02:41:00,
2013-03-26 22:46:00,29.6,26.2,30.18,SW,221,5.0,6.0,87,0.00,,,0.02,WeatherCatV1.10B1784,2013-03-27 02:46:00,
2013-03-26 22:51:00,29.7,26.3,30.18,SSW,205,3.0,4.0,87,0.00,,,0.02,WeatherCatV1.10B1784,2013-03-27 02:51:00,
2013-03-26 22:56:00,29.7,26.3,30.18,SE,142,1.0,9.0,87,0.00,,,0.02,WeatherCatV1.10B1784,2013-03-27 02:56:00,
2013-03-26 23:01:00,29.7,26.3,30.18,WSW,242,6.0,10.0,87,0.00,,,0.02,WeatherCatV1.10B1784,2013-03-27 03:01:00,
2013-03-26 23:06:00,29.7,26.3,30.19,SE,132,1.0,8.0,87,0.00,,,0.02,WeatherCatV1.10B1784,2013-03-27 03:06:00,
2013-03-26 23:11:00,29.7,26.3,30.19,SSW,207,2.0,2.0,87,0.00,,,0.02,WeatherCatV1.10B1784,2013-03-27 03:11:00,
2013-03-26 23:16:00,29.7,26.3,30.19,WSW,238,3.0,5.0,87,0.00,,,0.02,WeatherCatV1.10B1784,2013-03-27 03:16:00,
2013-03-26 23:21:00,29.7,26.3,30.18,SW,221,1.0,5.0,87,0.00,,,0.02,WeatherCatV1.10B1784,2013-03-27 03:21:00,
2013-03-26 23:26:00,29.7,26.3,30.18,SSW,206,3.0,5.0,87,0.00,,,0.02,WeatherCatV1.10B1784,2013-03-27 03:26:00,
2013-03-26 23:31:00,29.8,26.4,30.19,South,182,0.0,7.0,87,0.00,,,0.02,WeatherCatV1.10B1784,2013-03-27 03:31:00,
2013-03-26 23:36:00,29.8,26.7,30.19,NW,313,2.0,7.0,88,0.00,,,0.02,WeatherCatV1.10B1784,2013-03-27 03:36:00,
2013-03-26 23:41:00,29.7,26.6,30.19,SSW,204,4.0,5.0,88,0.00,,,0.02,WeatherCatV1.10B1784,2013-03-27 03:41:00,
2013-03-26 23:46:00,29.7,26.6,30.19,WSW,244,4.0,5.0,88,0.00,,,0.02,WeatherCatV1.10B1784,2013-03-27 03:46:00,
2013-03-26 23:51:00,29.7,26.6,30.19,SW,220,2.0,5.0,88,0.00,,,0.02,WeatherCatV1.10B1784,2013-03-27 03:51:00,
2013-03-26 23:56:00,29.7,26.6,30.19,South,187,6.0,7.0,88,0.00,,,0.02,WeatherCatV1.10B1784,2013-03-27 03:56:00,